DHACI EDFE-LOWI

Flight info

Callsign DHACI
Flight time N/A
Altitude 3500
Route DCT 495236N0084324E DCT 491530N0091639E DCT 485845N0093446E DCT EDPM DCT EDNH DCT 472310N0111531E DCT 472009N0111039E DCT 471711N0111011E DCT 471547N0111741E
Aircraft H160/L-G/S

Departure

Time 2026-05-06 10:40
Airport Frankfurt-Egelsbach Airport (EDFE)

Arrival

Time N/A
Airport Innsbruck Airport (LOWI)
Time Latitude Longitude Altitude Speed Heading
2026-05-06 10:10 49.96276 8.64337 389 ft 0 kts 265°
2026-05-06 10:32 49.96275 8.64333 389 ft 1 kts 268°
2026-05-06 10:32 49.96275 8.64327 389 ft 1 kts 265°
2026-05-06 10:32 49.96264 8.64313 389 ft 2 kts 182°
2026-05-06 10:32 49.96261 8.64312 389 ft 0 kts 181°
2026-05-06 10:33 49.96260 8.64312 389 ft 0 kts 180°
2026-05-06 10:33 49.96257 8.64312 389 ft 2 kts 183°
2026-05-06 10:34 49.96242 8.64312 389 ft 3 kts 179°
2026-05-06 10:34 49.96215 8.64313 389 ft 4 kts 174°
2026-05-06 10:34 49.96198 8.64315 389 ft 1 kts 181°
2026-05-06 10:34 49.96197 8.64315 389 ft 0 kts 181°
2026-05-06 10:35 49.96189 8.64316 389 ft 2 kts 168°
2026-05-06 10:35 49.96173 8.64350 389 ft 6 kts 83°
2026-05-06 10:35 49.96177 8.64432 389 ft 8 kts 86°
2026-05-06 10:35 49.96182 8.64516 389 ft 8 kts 84°
2026-05-06 10:36 49.96150 8.64521 390 ft 4 kts 208°
2026-05-06 10:36 49.96144 8.64516 390 ft 0 kts 207°
2026-05-06 10:37 49.96142 8.64514 390 ft 1 kts 208°
2026-05-06 10:37 49.96137 8.64510 390 ft 2 kts 209°
2026-05-06 10:37 49.96111 8.64484 391 ft 5 kts 219°
2026-05-06 10:38 49.96098 8.64432 391 ft 8 kts 269°
2026-05-06 10:38 49.96086 8.64199 454 ft 40 kts 258°
2026-05-06 10:38 49.96064 8.63620 577 ft 62 kts 258°
2026-05-06 10:38 49.95939 8.62951 704 ft 70 kts 233°
2026-05-06 10:39 49.95495 8.62875 834 ft 83 kts 158°
2026-05-06 10:39 49.94982 8.63419 870 ft 95 kts 148°
2026-05-06 10:39 49.94433 8.64046 893 ft 102 kts 154°
2026-05-06 10:39 49.93808 8.64632 863 ft 103 kts 155°
2026-05-06 10:40 49.93280 8.65270 1106 ft 91 kts 149°
2026-05-06 10:40 49.92771 8.65924 1376 ft 102 kts 145°
2026-05-06 10:40 49.92250 8.66787 1460 ft 123 kts 139°
2026-05-06 10:40 49.91649 8.67846 1468 ft 136 kts 136°
2026-05-06 10:41 49.91095 8.69007 1465 ft 130 kts 132°
2026-05-06 10:41 49.90519 8.70089 1466 ft 129 kts 145°
2026-05-06 10:41 49.89776 8.70993 1442 ft 147 kts 148°
2026-05-06 10:41 49.88933 8.71974 1477 ft 151 kts 149°
2026-05-06 10:42 49.88079 8.72914 1471 ft 151 kts 155°
2026-05-06 10:42 49.87164 8.73672 1473 ft 150 kts 154°
2026-05-06 10:42 49.86415 8.74427 1465 ft 157 kts 152°
2026-05-06 10:43 49.86137 8.74719 1476 ft 155 kts 152°
2026-05-06 10:43 49.85243 8.75660 1466 ft 156 kts 151°
2026-05-06 10:43 49.84347 8.76608 1471 ft 156 kts 151°
2026-05-06 10:44 49.82550 8.78498 1472 ft 157 kts 151°
2026-05-06 10:44 49.81642 8.79441 1477 ft 157 kts 152°
2026-05-06 10:44 49.80739 8.80413 1470 ft 160 kts 152°
2026-05-06 10:44 49.79833 8.81417 1481 ft 160 kts 151°
2026-05-06 10:45 49.78928 8.82414 1478 ft 160 kts 152°
2026-05-06 10:45 49.78020 8.83408 1478 ft 160 kts 151°
2026-05-06 10:45 49.77108 8.84403 1477 ft 160 kts 151°
2026-05-06 10:45 49.76200 8.85405 1480 ft 160 kts 152°
2026-05-06 10:46 49.75300 8.86408 1480 ft 159 kts 151°
2026-05-06 10:46 49.74401 8.87405 1478 ft 159 kts 150°
2026-05-06 10:46 49.73498 8.88391 1473 ft 159 kts 151°
2026-05-06 10:46 49.72582 8.89390 1450 ft 167 kts 151°
2026-05-06 10:47 49.71644 8.90427 1532 ft 152 kts 152°
2026-05-06 10:47 49.71076 8.91148 1755 ft 76 kts 149°
2026-05-06 10:47 49.70674 8.91752 1740 ft 96 kts 146°
2026-05-06 10:47 49.70126 8.92526 1857 ft 111 kts 145°
2026-05-06 10:48 49.69558 8.93218 2118 ft 101 kts 154°
2026-05-06 10:48 49.68975 8.93812 2349 ft 100 kts 155°
2026-05-06 10:48 49.68383 8.94384 2464 ft 101 kts 156°
2026-05-06 10:48 49.67791 8.94973 2502 ft 102 kts 156°
2026-05-06 10:49 49.67188 8.95575 2508 ft 109 kts 155°
2026-05-06 10:49 49.66429 8.96226 2512 ft 138 kts 160°
2026-05-06 10:49 49.65528 8.96888 2538 ft 144 kts 162°
2026-05-06 10:49 49.64632 8.97529 2544 ft 142 kts 162°
2026-05-06 10:50 49.63733 8.98152 2547 ft 141 kts 162°
2026-05-06 10:50 49.62828 8.98766 2536 ft 143 kts 163°
2026-05-06 10:50 49.61928 8.99394 2540 ft 141 kts 162°
2026-05-06 10:50 49.61036 9.00008 2536 ft 142 kts 162°
2026-05-06 10:51 49.60072 9.00679 2511 ft 162 kts 162°
2026-05-06 10:51 49.59029 9.01417 2484 ft 166 kts 163°
2026-05-06 10:51 49.57995 9.02200 2549 ft 165 kts 162°
2026-05-06 10:51 49.56963 9.02972 2535 ft 165 kts 161°
2026-05-06 10:52 49.55931 9.03713 2544 ft 163 kts 161°
2026-05-06 10:52 49.54905 9.04429 2561 ft 163 kts 163°
2026-05-06 10:52 49.53845 9.05164 2544 ft 168 kts 163°
2026-05-06 10:52 49.52799 9.05869 2549 ft 165 kts 163°
2026-05-06 10:53 49.51731 9.06578 2546 ft 165 kts 163°
2026-05-06 10:53 49.50696 9.07278 2540 ft 165 kts 163°
2026-05-06 10:53 49.49632 9.08009 2532 ft 167 kts 163°
2026-05-06 10:53 49.48580 9.08769 2566 ft 167 kts 162°
2026-05-06 10:54 49.47520 9.09491 2562 ft 166 kts 163°
2026-05-06 10:54 49.46471 9.10229 2553 ft 166 kts 160°
2026-05-06 10:54 49.45417 9.11048 2553 ft 168 kts 157°
2026-05-06 10:54 49.44412 9.11930 2553 ft 165 kts 156°
2026-05-06 10:55 49.43419 9.12825 2554 ft 166 kts 156°
2026-05-06 10:55 49.42425 9.13727 2556 ft 166 kts 158°
2026-05-06 10:55 49.41458 9.14643 2549 ft 166 kts 157°
2026-05-06 10:55 49.40470 9.15577 2545 ft 168 kts 156°
2026-05-06 10:56 49.39462 9.16500 2542 ft 170 kts 156°
2026-05-06 10:56 49.38451 9.17418 2545 ft 168 kts 159°
2026-05-06 10:56 49.37393 9.18215 2545 ft 173 kts 161°
2026-05-06 10:56 49.36295 9.18944 2559 ft 169 kts 163°
2026-05-06 10:57 49.35208 9.19603 2547 ft 169 kts 167°
2026-05-06 10:57 49.34453 9.20011 2548 ft 170 kts 167°
2026-05-06 10:57 49.32975 9.20765 2552 ft 170 kts 168°
2026-05-06 10:57 49.31860 9.21312 2548 ft 167 kts 170°
2026-05-06 10:58 49.30730 9.21780 2547 ft 168 kts 172°
2026-05-06 10:58 49.29981 9.22068 2506 ft 168 kts 173°
2026-05-06 10:58 49.28844 9.22480 2370 ft 168 kts 173°
2026-05-06 10:58 49.27723 9.22929 2245 ft 166 kts 170°
2026-05-06 10:59 49.26614 9.23504 2112 ft 169 kts 166°
2026-05-06 10:59 49.25470 9.23721 1991 ft 164 kts 192°
2026-05-06 10:59 49.24410 9.23162 1861 ft 163 kts 208°
2026-05-06 10:59 49.23337 9.22790 1948 ft 142 kts 185°
2026-05-06 11:00 49.22716 9.23446 1786 ft 99 kts 90°
2026-05-06 11:00 49.23132 9.24102 1450 ft 57 kts 356°
2026-05-06 11:00 49.23392 9.24043 1381 ft 56 kts 330°
2026-05-06 11:00 49.23639 9.23910 1138 ft 32 kts 271°
2026-05-06 11:01 49.23855 9.23730 853 ft 43 kts 281°
2026-05-06 11:01 49.23959 9.23244 780 ft 48 kts 308°
2026-05-06 11:01 49.24184 9.23120 666 ft 26 kts 105°
2026-05-06 11:01 49.24288 9.23276 615 ft 23 kts 144°
2026-05-06 11:02 49.24225 9.23422 552 ft 8 kts 178°
2026-05-06 11:02 49.24197 9.23434 547 ft 6 kts 189°
2026-05-06 11:02 49.24163 9.23433 535 ft 1 kts 148°
2026-05-06 11:02 49.24168 9.23430 544 ft 2 kts 138°
2026-05-06 11:03 49.24166 9.23435 533 ft 4 kts 166°
2026-05-06 11:03 49.24173 9.23440 530 ft 2 kts 167°
2026-05-06 11:03 49.24162 9.23455 542 ft 9 kts 186°
2026-05-06 11:03 49.24202 9.23447 572 ft 4 kts 187°
2026-05-06 11:04 49.24187 9.23444 575 ft 2 kts 186°
2026-05-06 11:04 49.24208 9.23452 558 ft 3 kts 187°
2026-05-06 11:04 49.24176 9.23443 535 ft 5 kts 187°
2026-05-06 11:04 49.24158 9.23441 527 ft 2 kts 187°
2026-05-06 11:05 49.24154 9.23442 523 ft 2 kts 187°
2026-05-06 11:05 49.24149 9.23441 523 ft 1 kts 178°
2026-05-06 11:05 49.24124 9.23457 584 ft 19 kts 180°
2026-05-06 11:05 49.23870 9.23420 749 ft 48 kts 255°
2026-05-06 11:06 49.24162 9.23219 1071 ft 66 kts 17°
2026-05-06 11:06 49.24600 9.23348 1329 ft 61 kts
2026-05-06 11:06 49.24975 9.23511 1427 ft 58 kts 46°
2026-05-06 11:06 49.24862 9.23930 1207 ft 43 kts 196°
2026-05-06 11:07 49.24628 9.23753 952 ft 36 kts 229°
2026-05-06 11:07 49.24426 9.23547 732 ft 32 kts 224°
2026-05-06 11:07 49.24275 9.23452 569 ft 15 kts 201°
2026-05-06 11:07 49.24243 9.23455 552 ft 4 kts 194°
2026-05-06 11:08 49.24203 9.23451 544 ft 6 kts 195°
2026-05-06 11:08 49.24172 9.23446 529 ft 2 kts 195°
2026-05-06 11:08 49.24163 9.23443 530 ft 2 kts 195°
2026-05-06 11:08 49.24168 9.23439 535 ft 5 kts 176°
2026-05-06 11:09 49.24171 9.23439 529 ft 4 kts 179°
2026-05-06 11:09 49.24157 9.23440 527 ft 3 kts 179°
2026-05-06 11:09 49.24132 9.23446 523 ft 6 kts 163°
2026-05-06 11:09 49.24093 9.23467 524 ft 7 kts 155°
2026-05-06 11:10 49.24053 9.23508 522 ft 7 kts 147°
2026-05-06 11:10 49.24032 9.23536 522 ft 0 kts 139°
2026-05-06 11:10 49.24037 9.23537 535 ft 3 kts 160°
2026-05-06 11:10 49.23996 9.23534 567 ft 10 kts 229°
2026-05-06 11:11 49.23995 9.23488 551 ft 6 kts 103°
2026-05-06 11:11 49.24037 9.23498 545 ft 11 kts 178°
2026-05-06 11:11 49.24021 9.23505 529 ft 1 kts 159°
2026-05-06 11:11 49.24020 9.23504 533 ft 2 kts 158°
2026-05-06 11:12 49.24000 9.23523 531 ft 3 kts 153°
2026-05-06 11:12 49.23994 9.23528 533 ft 0 kts 149°
2026-05-06 11:12 49.23993 9.23528 534 ft 0 kts 148°